| time (UTC) | temp C | wind direction | speed KPH | gust KPH | rain 1hr cm | rain 24hr cm | rain mn cm | humidity % | barometer mb |
| 20260504110623 | 5 | 306 | 0.0 | 0.0 | 0.00 | 0.00 | 0.00 | 89 | 1012.4 |
| 20260504110119 | 4 | 306 | 0.0 | 0.0 | 0.00 | 0.00 | 0.00 | 90 | 1012.4 |
| 20260504100545 | 2 | 305 | 0.0 | 0.0 | 0.00 | 0.00 | 0.00 | 92 | 1012.5 |
| 20260504081939 | 3 | 264 | 0.0 | 0.0 | 0.00 | 0.00 | 0.00 | 89 | 1012.3 |
| 20260504081436 | 3 | 249 | 0.0 | 0.0 | 0.00 | 0.00 | 0.00 | 88 | 1012.4 |
| 20260504080932 | 3 | 249 | 0.0 | 0.0 | 0.00 | 0.00 | 0.00 | 87 | 1012.3 |
| 20260504080428 | 3 | 249 | 0.0 | 1.6 | 0.00 | 0.00 | 0.00 | 88 | 1012.4 |
| 20260504070356 | 3 | 183 | 0.0 | 0.0 | 0.00 | 0.00 | 0.00 | 87 | 1012.1 |
| 20260504050743 | 5 | 250 | 0.0 | 0.0 | 0.00 | 0.00 | 0.00 | 82 | 1011.6 |
| 20260504050241 | 5 | 264 | 0.0 | 1.6 | 0.00 | 0.00 | 0.00 | 81 | 1011.9 |
| 20260504045739 | 5 | 268 | 0.0 | 1.6 | 0.00 | 0.00 | 0.00 | 81 | 1011.8 |
| 20260504045239 | 5 | 268 | 0.0 | 0.0 | 0.00 | 0.00 | 0.00 | 81 | 1011.7 |
| 20260504044737 | 5 | 267 | 0.0 | 1.6 | 0.00 | 0.00 | 0.00 | 82 | 1011.7 |
| 20260504044234 | 5 | 277 | 1.6 | 1.6 | 0.00 | 0.00 | 0.00 | 83 | 1011.8 |
| 20260504043731 | 5 | 317 | 0.0 | 0.0 | 0.00 | 0.00 | 0.00 | 82 | 1011.8 |
| 20260504043228 | 5 | 318 | 0.0 | 0.0 | 0.00 | 0.00 | 0.00 | 81 | 1011.9 |
| 20260504042726 | 5 | 317 | 0.0 | 0.0 | 0.00 | 0.00 | 0.00 | 82 | 1011.7 |
| 20260504042222 | 5 | 317 | 0.0 | 0.0 | 0.00 | 0.00 | 0.00 | 83 | 1012.0 |
| 20260504041718 | 5 | 317 | 0.0 | 0.0 | 0.00 | 0.00 | 0.00 | 83 | 1011.9 |
| 20260504041214 | 5 | 318 | 0.0 | 0.0 | 0.00 | 0.00 | 0.00 | 83 | 1012.0 |
| 20260504040710 | 5 | 318 | 0.0 | 0.0 | 0.00 | 0.00 | 0.00 | 82 | 1011.8 |
| 20260504040208 | 5 | 318 | 0.0 | 0.0 | 0.00 | 0.00 | 0.00 | 82 | 1011.9 |
| 20260504035704 | 5 | 318 | 0.0 | 0.0 | 0.00 | 0.00 | 0.00 | 82 | 1011.6 |
| 20260504035202 | 5 | 318 | 0.0 | 0.0 | 0.00 | 0.00 | 0.00 | 82 | 1011.8 |
| 20260504034659 | 5 | 318 | 0.0 | 0.0 | 0.00 | 0.00 | 0.00 | 81 | 1011.8 |
| 20260504034155 | 5 | 318 | 0.0 | 0.0 | 0.00 | 0.00 | 0.00 | 81 | 1011.6 |
| 20260504033653 | 5 | 318 | 0.0 | 0.0 | 0.00 | 0.00 | 0.00 | 81 | 1011.6 |
| 20260504033150 | 5 | 318 | 0.0 | 0.0 | 0.00 | 0.00 | 0.00 | 81 | 1011.7 |
| 20260504032647 | 6 | 296 | 0.0 | 0.0 | 0.00 | 0.00 | 0.00 | 79 | 1011.8 |
| 20260504032144 | 6 | 296 | 0.0 | 0.0 | 0.00 | 0.00 | 0.00 | 77 | 1011.7 |
| 20260504031641 | 6 | 297 | 0.0 | 0.0 | 0.00 | 0.00 | 0.00 | 77 | 1011.8 |
| 20260504031138 | 6 | 270 | 1.6 | 1.6 | 0.00 | 0.00 | 0.00 | 78 | 1011.6 |
| 20260504030634 | 6 | 262 | 0.0 | 1.6 | 0.00 | 0.00 | 0.00 | 78 | 1011.6 |
| 20260504030131 | 6 | 262 | 0.0 | 0.0 | 0.00 | 0.00 | 0.00 | 77 | 1011.7 |
| 20260504025628 | 6 | 262 | 0.0 | 0.0 | 0.00 | 0.00 | 0.00 | 76 | 1011.6 |
| 20260504025125 | 6 | 262 | 0.0 | 0.0 | 0.00 | 0.00 | 0.00 | 76 | 1011.6 |
| 20260504024622 | 6 | 262 | 0.0 | 0.0 | 0.00 | 0.00 | 0.00 | 76 | 1011.5 |
| 20260504024118 | 6 | 262 | 0.0 | 0.0 | 0.00 | 0.00 | 0.00 | 76 | 1011.4 |
| 20260504023615 | 6 | 262 | 0.0 | 0.0 | 0.00 | 0.00 | 0.00 | 75 | 1011.4 |
| 20260504023111 | 7 | 262 | 0.0 | 0.0 | 0.00 | 0.00 | 0.00 | 75 | 1011.6 |
| 20260504022608 | 7 | 262 | 0.0 | 0.0 | 0.00 | 0.00 | 0.00 | 74 | 1011.5 |
| 20260504022104 | 7 | 262 | 0.0 | 0.0 | 0.00 | 0.00 | 0.00 | 73 | 1011.5 |
| 20260504021602 | 7 | 262 | 0.0 | 0.0 | 0.00 | 0.00 | 0.00 | 72 | 1011.5 |
| 20260504021058 | 7 | 262 | 0.0 | 0.0 | 0.00 | 0.00 | 0.00 | 72 | 1011.2 |
| 20260504020555 | 7 | 262 | 0.0 | 0.0 | 0.00 | 0.00 | 0.00 | 71 | 1011.4 |
| 20260504020051 | 7 | 262 | 0.0 | 0.0 | 0.00 | 0.00 | 0.00 | 70 | 1011.2 |
| 20260504015548 | 8 | 262 | 0.0 | 0.0 | 0.00 | 0.00 | 0.00 | 69 | 1011.3 |
| 20260504015044 | 8 | 262 | 0.0 | 0.0 | 0.00 | 0.00 | 0.00 | 68 | 1011.3 |
| 20260504014540 | 8 | 262 | 0.0 | 0.0 | 0.00 | 0.00 | 0.00 | 68 | 1011.3 |
| 20260504014038 | 8 | 262 | 0.0 | 0.0 | 0.00 | 0.00 | 0.00 | 67 | 1011.1 |
| 20260504013535 | 8 | 262 | 0.0 | 0.0 | 0.00 | 0.00 | 0.00 | 66 | 1011.0 |
| 20260504013032 | 8 | 262 | 0.0 | 0.0 | 0.00 | 0.00 | 0.00 | 65 | 1011.1 |
| 20260504012530 | 8 | 262 | 0.0 | 0.0 | 0.00 | 0.00 | 0.00 | 64 | 1011.1 |
| 20260504012027 | 9 | 262 | 0.0 | 0.0 | 0.00 | 0.00 | 0.00 | 63 | 1011.1 |
| 20260504011524 | 9 | 262 | 0.0 | 0.0 | 0.00 | 0.00 | 0.00 | 60 | 1011.2 |
| 20260504011020 | 9 | 262 | 0.0 | 0.0 | 0.00 | 0.00 | 0.00 | 58 | 1011.0 |
| 20260504010516 | 10 | 262 | 0.0 | 0.0 | 0.00 | 0.00 | 0.00 | 60 | 1011.3 |
| 20260504010012 | 10 | 262 | 0.0 | 0.0 | 0.00 | 0.00 | 0.00 | 59 | 1011.1 |
| 20260504005509 | 10 | 262 | 0.0 | 0.0 | 0.00 | 0.00 | 0.00 | 57 | 1011.0 |
| 20260504005006 | 10 | 262 | 0.0 | 0.0 | 0.00 | 0.00 | 0.00 | 55 | 1010.9 |
| 20260504004504 | 10 | 262 | 0.0 | 1.6 | 0.00 | 0.00 | 0.00 | 54 | 1010.8 |
| 20260504004000 | 11 | 236 | 1.6 | 1.6 | 0.00 | 0.00 | 0.00 | 53 | 1010.9 |
| 20260504003456 | 11 | 257 | 0.0 | 0.0 | 0.00 | 0.00 | 0.00 | 49 | 1010.8 |
| 20260504002954 | 12 | 317 | 1.6 | 1.6 | 0.00 | 0.00 | 0.00 | 48 | 1010.9 |
| 20260504002450 | 12 | 274 | 0.0 | 0.0 | 0.00 | 0.00 | 0.00 | 43 | 1010.6 |
| 20260504001948 | 12 | 1 | 1.6 | 1.6 | 0.00 | 0.00 | 0.00 | 41 | 1010.5 |
| 20260504001445 | 13 | 81 | 1.6 | 1.6 | 0.00 | 0.00 | 0.00 | 40 | 1010.4 |
| 20260504000942 | 13 | 298 | 1.6 | 1.6 | 0.00 | 0.00 | 0.00 | 40 | 1010.4 |
| 20260504000439 | 13 | 286 | 0.0 | 0.0 | 0.00 | 0.00 | 0.00 | 40 | 1010.4 |
| 20260503235936 | 13 | 287 | 0.0 | 0.0 | 0.00 | 0.00 | 0.00 | 40 | 1010.4 |
| 20260503235434 | 13 | 159 | 0.0 | 0.0 | 0.00 | 0.00 | 0.00 | 40 | 1010.1 |
| 20260503234931 | 13 | 107 | 1.6 | 1.6 | 0.00 | 0.00 | 0.00 | 40 | 1010.0 |
| 20260503234428 | 13 | 221 | 1.6 | 1.6 | 0.00 | 0.00 | 0.00 | 40 | 1010.2 |
| 20260503233927 | 13 | 327 | 1.6 | 3.2 | 0.00 | 0.00 | 0.00 | 39 | 1010.0 |
| 20260503233423 | 13 | 38 | 3.2 | 3.2 | 0.00 | 0.00 | 0.00 | 38 | 1010.1 |
| 20260503232919 | 13 | 45 | 1.6 | 3.2 | 0.00 | 0.00 | 0.00 | 38 | 1010.2 |
| 20260503232416 | 14 | 347 | 3.2 | 4.8 | 0.00 | 0.00 | 0.00 | 37 | 1010.0 |
| 20260503231914 | 14 | 119 | 6.4 | 6.4 | 0.00 | 0.00 | 0.00 | 36 | 1009.9 |
| 20260503231411 | 14 | 158 | 3.2 | 4.8 | 0.00 | 0.00 | 0.00 | 37 | 1009.9 |
| 20260503230907 | 14 | 61 | 0.0 | 0.0 | 0.00 | 0.00 | 0.00 | 35 | 1010.1 |
| 20260503230404 | 14 | 299 | 0.0 | 0.0 | 0.00 | 0.00 | 0.00 | 34 | 1009.9 |
| 20260503225902 | 14 | 226 | 1.6 | 3.2 | 0.00 | 0.00 | 0.00 | 34 | 1009.8 |
| 20260503225357 | 14 | 39 | 1.6 | 3.2 | 0.00 | 0.00 | 0.00 | 33 | 1009.8 |
| 20260503224854 | 14 | 27 | 0.0 | 0.0 | 0.00 | 0.00 | 0.00 | 35 | 1009.9 |
| 20260503224351 | 15 | 159 | 3.2 | 3.2 | 0.00 | 0.00 | 0.00 | 32 | 1009.6 |
| 20260503223849 | 15 | 244 | 3.2 | 3.2 | 0.00 | 0.00 | 0.00 | 32 | 1009.7 |
| 20260503223347 | 15 | 302 | 3.2 | 4.8 | 0.00 | 0.00 | 0.00 | 31 | 1009.5 |
| 20260503222842 | 15 | 52 | 1.6 | 1.6 | 0.00 | 0.00 | 0.00 | 31 | 1009.5 |
| 20260503222341 | 15 | 269 | 1.6 | 1.6 | 0.00 | 0.00 | 0.00 | 32 | 1009.7 |
| 20260503221838 | 15 | 18 | 0.0 | 0.0 | 0.00 | 0.00 | 0.00 | 32 | 1009.6 |
| 20260503221337 | 15 | 24 | 1.6 | 3.2 | 0.00 | 0.00 | 0.00 | 30 | 1009.4 |
| 20260503220832 | 15 | 335 | 4.8 | 4.8 | 0.00 | 0.00 | 0.00 | 30 | 1009.5 |
| 20260503220329 | 15 | 258 | 0.0 | 0.0 | 0.00 | 0.00 | 0.00 | 30 | 1009.4 |
| 20260503215826 | 15 | 139 | 1.6 | 1.6 | 0.00 | 0.00 | 0.00 | 29 | 1009.5 |
| 20260503215323 | 15 | 321 | 1.6 | 1.6 | 0.00 | 0.00 | 0.00 | 29 | 1009.4 |
| 20260503214821 | 15 | 44 | 1.6 | 3.2 | 0.00 | 0.00 | 0.00 | 29 | 1009.6 |
| 20260503214318 | 16 | 262 | 3.2 | 4.8 | 0.00 | 0.00 | 0.00 | 26 | 1009.4 |
| 20260503213815 | 16 | 248 | 1.6 | 1.6 | 0.00 | 0.00 | 0.00 | 29 | 1009.2 |
| 20260503213313 | 16 | 34 | 1.6 | 3.2 | 0.00 | 0.00 | 0.00 | 29 | 1009.2 |
| 20260503212810 | 16 | 216 | 3.2 | 3.2 | 0.00 | 0.00 | 0.00 | 29 | 1009.2 |
| 20260503212308 | 16 | 350 | 1.6 | 3.2 | 0.00 | 0.00 | 0.00 | 28 | 1009.4 |
| 20260503211805 | 15 | 318 | 3.2 | 4.8 | 0.00 | 0.00 | 0.00 | 27 | 1009.2 |
| 20260503211301 | 15 | 45 | 3.2 | 4.8 | 0.00 | 0.00 | 0.00 | 29 | 1009.3 |
| 20260503210801 | 16 | 242 | 3.2 | 3.2 | 0.00 | 0.00 | 0.00 | 27 | 1009.3 |
| 20260503210259 | 15 | 4 | 1.6 | 1.6 | 0.00 | 0.00 | 0.00 | 30 | 1009.3 |
| 20260503205754 | 16 | 281 | 8.0 | 11.3 | 0.00 | 0.00 | 0.00 | 27 | 1009.3 |
| 20260503205251 | 16 | 241 | 1.6 | 3.2 | 0.00 | 0.00 | 0.00 | 32 | 1009.4 |
| 20260503204747 | 15 | 284 | 1.6 | 3.2 | 0.00 | 0.00 | 0.00 | 30 | 1009.4 |
| 20260503204245 | 15 | 310 | 3.2 | 3.2 | 0.00 | 0.00 | 0.00 | 29 | 1009.3 |
| 20260503203742 | 15 | 282 | 0.0 | 1.6 | 0.00 | 0.00 | 0.00 | 37 | 1009.2 |
| 20260503203240 | 15 | 60 | 3.2 | 3.2 | 0.00 | 0.00 | 0.00 | 30 | 1009.3 |
| 20260503202737 | 15 | 72 | 1.6 | 1.6 | 0.00 | 0.00 | 0.00 | 34 | 1009.4 |
| 20260503202234 | 15 | 327 | 1.6 | 3.2 | 0.00 | 0.00 | 0.00 | 34 | 1009.5 |
| 20260503201732 | 15 | 312 | 4.8 | 6.4 | 0.00 | 0.00 | 0.00 | 33 | 1009.5 |
| 20260503201230 | 14 | 47 | 1.6 | 3.2 | 0.00 | 0.00 | 0.00 | 32 | 1009.5 |
| 20260503200726 | 15 | 139 | 1.6 | 1.6 | 0.00 | 0.00 | 0.00 | 32 | 1009.6 |
| 20260503200222 | 14 | 312 | 3.2 | 3.2 | 0.00 | 0.00 | 0.00 | 30 | 1009.7 |
| 20260503195719 | 14 | 303 | 0.0 | 0.0 | 0.00 | 0.00 | 0.00 | 36 | 1009.7 |
| 20260503195216 | 13 | 278 | 3.2 | 6.4 | 0.00 | 0.00 | 0.00 | 31 | 1009.9 |
| 20260503194713 | 14 | 283 | 9.7 | 11.3 | 0.00 | 0.00 | 0.00 | 29 | 1009.9 |
| 20260503194209 | 14 | 42 | 1.6 | 1.6 | 0.00 | 0.00 | 0.00 | 32 | 1010.0 |
| 20260503193705 | 14 | 271 | 1.6 | 3.2 | 0.00 | 0.00 | 0.00 | 30 | 1009.8 |
| 20260503193201 | 14 | 218 | 3.2 | 3.2 | 0.00 | 0.00 | 0.00 | 30 | 1010.1 |
| 20260503192657 | 13 | 278 | 6.4 | 11.3 | 0.00 | 0.00 | 0.00 | 33 | 1010.2 |
| 20260503192153 | 14 | 313 | 3.2 | 4.8 | 0.00 | 0.00 | 0.00 | 31 | 1010.4 |
| 20260503191649 | 13 | 286 | 1.6 | 3.2 | 0.00 | 0.00 | 0.00 | 37 | 1010.2 |
| 20260503191147 | 13 | 325 | 9.7 | 14.5 | 0.00 | 0.00 | 0.00 | 32 | 1010.5 |
| 20260503190643 | 13 | 290 | 6.4 | 9.7 | 0.00 | 0.00 | 0.00 | 31 | 1010.6 |
| 20260503190140 | 13 | 23 | 6.4 | 9.7 | 0.00 | 0.00 | 0.00 | 34 | 1010.3 |
| 20260503185637 | 13 | 2 | 6.4 | 6.4 | 0.00 | 0.00 | 0.00 | 36 | 1010.6 |
| 20260503185132 | 14 | 51 | 3.2 | 6.4 | 0.00 | 0.00 | 0.00 | 33 | 1010.4 |
| 20260503184627 | 13 | 254 | 1.6 | 1.6 | 0.00 | 0.00 | 0.00 | 37 | 1010.6 |
| 20260503184124 | 13 | 345 | 8.0 | 12.9 | 0.00 | 0.00 | 0.00 | 35 | 1010.5 |
| 20260503183621 | 13 | 45 | 3.2 | 4.8 | 0.00 | 0.00 | 0.00 | 36 | 1010.6 |
| 20260503183118 | 14 | 320 | 6.4 | 9.7 | 0.00 | 0.00 | 0.00 | 38 | 1011.0 |
| 20260503182616 | 13 | 86 | 0.0 | 1.6 | 0.00 | 0.00 | 0.00 | 37 | 1010.8 |
| 20260503182114 | 13 | 333 | 3.2 | 3.2 | 0.00 | 0.00 | 0.00 | 41 | 1010.9 |
| 20260503181611 | 14 | 310 | 6.4 | 11.3 | 0.00 | 0.00 | 0.00 | 37 | 1010.9 |
| 20260503181108 | 14 | 329 | 3.2 | 4.8 | 0.00 | 0.00 | 0.00 | 42 | 1010.9 |
| 20260503180605 | 13 | 168 | 1.6 | 1.6 | 0.00 | 0.00 | 0.00 | 37 | 1011.0 |
| 20260503180103 | 13 | 300 | 1.6 | 3.2 | 0.00 | 0.00 | 0.00 | 37 | 1010.9 |
| 20260503175559 | 13 | 50 | 1.6 | 3.2 | 0.00 | 0.00 | 0.00 | 40 | 1011.1 |
| 20260503175056 | 12 | 44 | 3.2 | 6.4 | 0.00 | 0.00 | 0.00 | 38 | 1011.1 |
| 20260503174553 | 12 | 12 | 3.2 | 3.2 | 0.00 | 0.00 | 0.00 | 41 | 1011.3 |
| 20260503174050 | 12 | 178 | 1.6 | 1.6 | 0.00 | 0.00 | 0.00 | 38 | 1011.1 |
| 20260503173545 | 12 | 303 | 6.4 | 9.7 | 0.00 | 0.00 | 0.00 | 37 | 1011.1 |
| 20260503173041 | 12 | 248 | 8.0 | 14.5 | 0.00 | 0.00 | 0.00 | 37 | 1011.3 |
| 20260503172539 | 11 | 238 | 1.6 | 1.6 | 0.00 | 0.00 | 0.00 | 38 | 1011.4 |
| 20260503172036 | 11 | 38 | 1.6 | 1.6 | 0.00 | 0.00 | 0.00 | 41 | 1011.3 |
| 20260503171532 | 11 | 212 | 3.2 | 4.8 | 0.00 | 0.00 | 0.00 | 42 | 1011.1 |
| 20260503171030 | 11 | 59 | 3.2 | 6.4 | 0.00 | 0.00 | 0.00 | 40 | 1011.5 |
| 20260503170526 | 11 | 51 | 3.2 | 6.4 | 0.00 | 0.00 | 0.00 | 39 | 1011.4 |
| 20260503150918 | 10 | 36 | 1.6 | 1.6 | 0.00 | 0.00 | 0.00 | 41 | 1011.6 |
| 20260503150415 | 11 | 2 | 4.8 | 6.4 | 0.00 | 0.00 | 0.00 | 40 | 1011.6 |
| 20260503131308 | 8 | 204 | 3.2 | 4.8 | 0.00 | 0.00 | 0.00 | 53 | 1011.8 |
| 20260503130806 | 8 | 44 | 1.6 | 1.6 | 0.00 | 0.00 | 0.00 | 54 | 1012.1 |
| 20260503130303 | 8 | 21 | 3.2 | 3.2 | 0.00 | 0.00 | 0.00 | 53 | 1011.9 |